Location: Estourmel
(50.1478°N, 3.3217°E)
Time: 08:40:13
(UTC+00:00)

Daily predictions for brighter satellites

Satellite Brightness Start Highest point End
(mag) Time Altitude Azimuth Time Altitude Azimuth Time Altitude Azimuth
BREEZE-M DEB (TANK) 4.3 19:59:27 10° SSW 20:02:41 31° SE 20:09:24 10° E
Cosmos 923 Rocket 4.3 20:02:35 10° S 20:07:39 48° ESE 20:12:47 10° NNE
SPOT 5 2.9 20:03:51 10° SSE 20:08:26 60° ENE 20:12:49 10° N
Cosmos 1464 Rocket 4.1 20:05:33 10° N 20:11:55 90° W 20:18:11 10° S
Meteor 2-2 Rocket 4.4 20:06:55 10° S 20:12:55 73° E 20:18:55 10° NNE
Okean O Rocket 2.8 20:12:59 10° S 20:17:12 42° W 20:21:26 10° NNW
USA 234 4.2 20:12:40 10° ENE 20:18:56 50° N 20:25:11 10° WNW
Terra 2.4 20:14:34 10° SE 20:19:01 43° ENE 20:23:28 10° N
Cosmos 1656 Rocket 4.0 20:16:30 10° NNW 20:21:52 54° NE 20:27:14 10° SE
Cosmos 1371 Rocket 4.2 20:17:12 10° NNW 20:22:32 63° ENE 20:27:50 10° SE
ERS-1 Rocket 3.2 20:19:35 10° SSE 20:24:29 58° ENE 20:29:26 10° N
MOS 1 4.5 20:19:33 10° SSE 20:25:15 79° WSW 20:30:57 10° NNW
ATLAS 2AS CENTAUR R/B 3.0 20:18:23 10° SW 20:25:47 84° NW 20:32:55 10° NE
SPOT 3 Rocket 4.1 20:24:23 10° SE 20:29:15 45° ENE 20:34:09 10° N
USA 59 Rocket 2.3 20:27:52 10° N 20:29:36 13° NNE 20:31:30 10° NE
Cosmos 1782 3.3 20:26:22 10° SSW 20:30:08 60° WNW 20:33:56 10° N
IRS-1A Rocket 4.3 20:26:20 10° SSE 20:32:00 84° ENE 20:37:36 10° NNW
Meteor 1-26 Rocket 4.4 20:27:44 10° S 20:33:42 66° E 20:39:41 10° NNE
Cosmos 1943 Rocket 3.3 20:28:41 10° NW 20:33:57 41° WSW 20:39:11 10° S
USA 281 3.6 20:27:47 10° SE 20:34:10 56° NE 20:40:35 10° NNW
Cosmos 1420 Rocket 4.1 20:29:43 10° NNW 20:35:05 89° ENE 20:40:24 10° SSE
Cosmos 1743 3.0 20:34:48 10° N 20:38:19 46° ENE 20:41:25 12° SSE
Cosmos 2278 Rocket 4.2 20:34:04 10° NW 20:38:30 24° WSW 20:42:54 10° SSW
ISS -3.4 20:36:12 10° W 20:39:32 67° N 20:42:51 10° E
NOSS 3-1 (A) 4.3 20:32:22 10° NW 20:39:33 69° SW 20:48:11 10° SSE
Cosmos 972 4.4 20:35:41 10° SSW 20:40:34 90° ESE 20:45:35 10° NNE
USA 245 1.8 20:42:39 15° SSE 20:44:27 73° ENE 20:46:41 10° N
Cosmos 2297 3.8 20:40:25 10° NNW 20:46:13 81° ENE 20:51:24 13° SSE
Cosmos 1634 Rocket 4.1 20:40:26 10° N 20:46:43 64° ENE 20:52:38 11° SSE
Cosmos 2112 Rocket 4.0 20:44:45 10° S 20:50:01 67° ESE 20:55:18 10° NNE
USA 290 3.2 20:47:29 10° NW 20:50:34 42° WSW 20:53:34 10° S
Cosmos 1766 Rocket 3.6 20:47:00 10° N 20:51:27 75° ENE 20:55:32 12° SSE
Okean-O 4.0 20:48:00 10° SSW 20:52:03 35° W 20:56:08 10° NNW
USA 229 DEB 4.1 20:47:12 10° NW 20:54:32 76° NE 21:01:46 13° SE
USA 229 4.1 20:47:18 10° NW 20:54:37 76° NE 21:01:53 13° SE
Cosmos 2034 Rocket 4.4 20:49:31 10° NNW 20:55:40 65° W 21:01:49 10° S
Cosmos 1726 2.9 20:54:03 10° N 20:56:50 28° ENE 20:58:35 17° ESE
Spot 2 Rocket 3.5 20:54:06 12° SSE 20:58:48 85° ENE 21:03:53 10° NNW
Cosmos 1680 Rocket 3.6 20:54:57 10° SSW 21:00:16 88° WNW 21:05:34 10° NNE
Meteor 2-6 Rocket 4.3 20:58:54 10° S 21:04:25 59° E 21:09:50 10° NNE
USA 32 4.0 21:01:38 10° S 21:06:51 80° E 21:12:06 10° N
Tsikada Rocket 4.0 21:03:08 10° S 21:09:19 87° W 21:15:37 10° N
Sich 1 4.3 21:09:28 10° N 21:13:17 28° ENE 21:15:51 17° ESE
Helios 1B 4.5 21:09:11 10° NNE 21:13:32 77° ESE 21:17:49 10° S
MetOp-A 3.9 21:11:24 18° SE 21:14:33 59° ENE 21:19:15 10° N
USA 276 1.5 21:12:30 10° W 21:14:40 48° SSW 21:15:14 36° SSE
SL-16 R/B 2.3 21:10:00 10° SSW 21:15:41 84° WNW 21:21:25 10° NNE
Cosmos 2263 4.3 21:10:00 10° NNW 21:15:42 79° ENE 21:20:00 18° SE
MOS 1 Rocket 3.5 21:13:56 15° SSE 21:18:04 87° WSW 21:23:23 10° NNW
Cosmos 2056 Rocket 4.2 21:13:40 10° NNW 21:18:54 51° WSW 21:23:28 13° S
Lacrosse 5 3.0 21:15:16 10° WNW 21:19:46 32° SW 21:23:08 16° S
Cosmos 1536 3.2 21:16:18 10° N 21:20:05 46° ENE 21:22:15 22° SE
Ariane Rocket 3.3 21:16:49 13° S 21:21:16 65° WSW 21:26:21 10° NNW
Lacrosse 5 rocket 1.7 21:17:15 10° WSW 21:21:32 71° NNW 21:25:45 10° NE
Cosmos 1452 Rocket 3.7 21:17:56 10° NNW 21:23:09 62° ENE 21:26:45 20° SE
Cosmos 1408 Rocket 3.9 21:19:06 10° N 21:23:29 54° ENE 21:26:12 22° SSE
Cosmos 44 4.0 21:19:02 10° NW 21:23:37 42° WSW 21:26:45 17° S
Spot 1 3.9 21:20:33 10° NNE 21:24:35 62° ESE 21:27:37 17° S
Meteor 1-27 Rocket 4.5 21:22:18 19° SE 21:25:30 34° E 21:30:25 10° NNE
Cosmos 1340 4.1 21:24:41 10° NNE 21:27:25 22° ENE 21:28:49 17° ESE
Okean 1 4.1 21:25:59 23° SE 21:27:36 33° E 21:31:06 10° NNE
Cosmos 2221 3.3 21:23:54 10° SSW 21:28:06 51° WNW 21:32:21 10° N
Cosmos 2369 Rocket 2.4 21:22:47 10° NNW 21:28:21 68° WSW 21:32:23 19° SSE
Cosmos 2084 3.9 21:28:27 10° WNW 21:31:59 39° SW 21:33:53 22° S
FALCON 9 R/B 4.4 21:29:13 10° SW 21:35:34 33° S 21:53:23 10° ESE
USA 306 3.1 21:37:56 10° WNW 21:41:45 59° NNE 21:45:08 13° E
Cosmos 921 Rocket 3.5 21:38:43 10° SSW 21:43:10 65° WNW 21:47:39 10° NNE
Okean 3 Rocket 4.0 21:40:47 10° NNW 21:45:07 56° W 21:48:05 19° SSW
GEOS 3 Rocket 3.7 21:41:05 10° NE 21:46:18 80° NW 21:51:25 10° SW
ATLAS 3B R/B 4.1 21:44:31 10° NW 21:51:16 33° WSW 21:57:03 13° S
Landsat 5 3.3 21:48:30 10° N 21:52:17 73° WNW 21:54:55 19° SSW
SL-8 R/B 4.1 21:50:07 10° SW 21:54:29 37° SSE 21:58:51 10° E
Cosmos 1500 Rocket 3.4 21:51:30 10° N 21:55:51 83° E 21:57:58 30° SSE
Terra 3.5 21:52:45 10° SSW 21:56:45 27° W 22:00:46 10° NW
Cosmos 1733 3.0 21:55:29 10° N 21:58:59 64° ENE 22:00:07 38° SE
Cosmos 1943 3.1 21:53:57 13° SSW 21:59:00 73° ESE 22:04:41 10° NNE
ALOS 2 4.3 21:58:50 15° ESE 22:01:12 23° ENE 22:04:40 10° N
USA 234 3.9 21:55:02 10° E 22:01:25 57° NNE 22:07:48 10° WNW
Cosmos 1048 Rocket 3.9 21:59:01 14° SSW 22:03:27 90° SE 22:08:37 10° NNE
H-2A R/B 3.2 22:02:30 26° ESE 22:04:18 41° ENE 22:08:16 10° N
Cosmos 1805 Rocket 3.5 22:00:23 10° N 22:04:46 85° ENE 22:06:48 32° SSE
Cosmos 1842 Rocket 4.4 22:01:42 13° SSW 22:05:33 49° WNW 22:09:53 10° N
Cosmos 494 Rocket 4.3 22:01:38 10° SW 22:06:42 65° WNW 22:11:49 10° NNE
Meteor 1-10 Rocket 4.3 22:02:23 16° SSW 22:07:08 78° WNW 22:12:49 10° N
Lacrosse 4 Rocket 3.4 22:04:03 10° NNW 22:07:14 21° NE 22:10:26 10° E
Cosmos 1151 Rocket 3.3 22:08:37 33° SSE 22:10:13 50° E 22:14:27 10° NNE
Meteor 2-9 Rocket 4.3 22:05:41 10° NNW 22:11:29 80° W 22:14:56 26° S
Cosmos 1666 Rocket 4.4 22:08:38 10° N 22:12:42 38° ENE 22:14:23 27° ESE
Cosmos 1302 Rocket 4.1 22:09:22 10° NNW 22:14:34 70° ENE 22:17:13 29° SE
Meteor 1-11 Rocket 4.1 22:09:11 10° NNW 22:14:42 60° W 22:18:13 23° SSW
ISS -3.8 22:12:55 10° WNW 22:16:12 57° SSW 22:16:32 53° S
Cosmos 1633 Rocket 4.1 22:12:18 10° N 22:16:23 35° ENE 22:18:08 25° ESE
Meteor 2-10 4.2 22:11:02 10° NNW 22:16:40 74° W 22:19:41 27° S
ATLAS 2AS CENTAUR R/B 4.5 22:11:04 10° W 22:17:38 35° NNW 22:23:58 10° NE
ARIANE 5 R/B 2.5 22:16:04 35° SSE 22:17:55 84° ENE 22:22:15 10° NNW
Meteor 1-19 Rocket 4.3 22:14:07 23° S 22:17:57 83° E 22:23:47 10° NNE
Cosmos 1340 Rocket 2.8 22:17:22 38° S 22:18:44 69° E 22:22:44 10° NNE
USA 281 4.2 22:14:24 17° SSW 22:18:53 38° WSW 22:24:58 10° NW
USA 59 Rocket 0.6 22:16:24 10° NW 22:19:59 49° NE 22:22:59 20° ESE
Cosmos 1331 Rocket 4.4 22:15:30 10° NNW 22:20:37 54° WSW 22:23:13 27° S
NOSS 2-1 (E) 4.1 22:17:15 10° NW 22:20:51 50° NE 22:23:49 20° ESE
MINOTAUR 4 R/B 3.4 22:19:06 10° NNE 22:22:06 74° ESE 22:22:22 67° SSE
BREEZE-M DEB (TANK) 4.4 22:19:00 10° WSW 22:23:10 82° SSE 22:42:32 10° E
IRIDIUM 103 4.4 22:18:51 10° N 22:24:05 70° E 22:26:30 32° SSE
H-2A R/B 4.2 22:23:02 10° ENE 22:25:05 13° E 22:25:53 12° E
CZ-2C R/B 3.6 22:20:49 10° NNE 22:25:24 78° ESE 22:27:22 33° S
Cosmos 1726 4.0 22:27:42 10° NW 22:29:52 17° W 22:31:07 14° WSW
NOSS 2-1 (D) 3.7 22:28:50 10° NW 22:32:29 63° NE 22:34:55 26° ESE
Nadezhda 4 Rocket 4.0 22:30:39 23° SSW 22:34:42 79° W 22:40:59 10° N
Molniya-1 4.4 22:35:27 22° SSW 22:38:13 77° SE 22:49:52 10° NE
Cosmos 1805 3.0 22:35:34 10° NNW 22:39:17 82° W 22:40:09 51° S
IRIDIUM 106 4.3 22:37:08 10° N 22:42:24 85° W 22:44:46 34° S
Cosmos 1743 Rocket 4.4 22:42:00 10° NNW 22:46:07 41° W 22:47:56 27° SW
Sich 1 4.2 22:46:49 10° NNW 22:50:46 34° W 22:52:35 24° SW
Spot 2 4.2 22:50:57 39° SSE 22:52:37 78° ENE 22:57:27 10° NNW
Cosmos 1975 2.8 22:52:17 10° NNW 22:56:13 70° W 22:57:09 49° SSW
Lacrosse 5 rocket 3.2 22:56:32 10° WNW 23:00:24 33° N 23:04:11 10° ENE
Cosmos 1340 3.8 22:58:45 10° NW 23:01:41 27° W 23:02:14 25° WSW
Cosmos 1603 4.1 22:57:29 15° SW 23:02:08 63° WNW 23:07:50 10° NNE
Cosmos 1626 1.6 23:04:41 75° ESE 23:04:45 75° E 23:07:59 10° NNE
USA 267 3.4 23:00:39 10° ENE 23:07:02 53° SE 23:10:42 26° SSW
NOSS 2-1 (C) 3.4 23:03:57 10° NW 23:07:43 73° SW 23:09:08 43° SSE
Cosmos 1674 3.6 23:07:50 29° E 23:07:55 29° E 23:10:59 10° NNE
Cosmos 2369 Rocket 4.4 23:09:34 10° WNW 23:11:17 11° W 23:12:59 10° WSW
PSLV R/B 4.3 23:08:33 10° NNE 23:12:56 42° E 23:13:59 36° SE
USA 306 2.9 23:11:45 10° WNW 23:15:15 47° SW 23:15:15 47° SW
Cosmos 2026 Rocket 4.1 23:12:23 28° SSW 23:15:52 73° WNW 23:22:10 10° N
Cosmos 1833 Rocket 3.7 23:17:09 26° SE 23:18:33 29° ESE 23:23:20 10° NE
S3M 4.5 23:18:44 10° N 23:25:01 55° ENE 23:28:27 27° SE
NOSS 3-3 (C) 4.2 23:26:06 36° SSE 23:27:38 44° ESE 23:33:35 10° NE
SL-24 R/B 4.3 23:25:48 10° NNE 23:30:12 65° ESE 23:31:32 44° SSE
Cosmos 220 Rocket 4.0 23:30:06 44° SW 23:31:26 79° WNW 23:35:47 10° NNE
Cosmos 1515 Rocket 3.5 23:31:37 50° SSE 23:32:39 72° E 23:36:59 10° NNE
GP-B 4.1 23:30:28 10° NNE 23:34:34 36° E 23:35:54 29° ESE
Cosmos 1328 Rocket 4.0 23:33:11 36° SW 23:34:38 54° WNW 23:38:54 10° N
SL-8 R/B 3.5 23:31:49 10° WSW 23:36:33 70° S 23:41:19 10° E
Cosmos 1553 Rocket 3.9 23:30:53 10° NNW 23:36:58 74° W 23:39:39 35° S
ALOS 2 3.1 23:36:13 39° SW 23:37:16 47° W 23:41:32 10° NNW
H-2A R/B 4.0 23:38:30 21° WSW 23:39:25 23° W 23:42:47 10° NW
Cosmos 1470 Rocket 3.9 23:36:16 10° NNW 23:40:39 56° W 23:41:47 43° SW
Cosmos 1869 Rocket 4.1 23:37:17 10° N 23:41:31 49° ENE 23:42:58 35° SE
USA 234 3.2 23:38:50 16° SE 23:44:19 77° SW 23:50:55 10° WNW
Lacrosse 4 Rocket 1.3 23:41:52 10° NW 23:45:54 65° WSW 23:46:28 56° SSW
Cosmos 1633 Rocket 4.4 23:50:14 10° NNW 23:53:58 27° W 23:55:08 24° WSW
